CZ-12 R/B, 65115

Orbit data source: Space-Track

CZ-12 R/B, 65115 is space debris in LEO originally from a launch on Mon, 04 Aug 2025 UTC launched from the Wenchang Satellite Launch Center (WSC). Debris objects in space refer to the collection of defunct objects orbiting the Earth. Examples of debris include non-operational satellites, rocket bodies, and fragments generated from explosions, collisions, or faulty payload assembly.

Loading next visibility...
Identifier
65115, 2025-168K
Orbit
LEO
Country
Flag of CNCN / PRC
Related business
Manufacturer
SAST
Mission
Spacecraft
Bus & Motor
CZ-12 STAGE 2, YF-115
Mass
~6,000 kg wet, ~6,000 kg dry
Launch date (UTC)
2025-08-04 (11 months ago)
Launch vehicle
Unknown
Launch site
Wenchang Satellite Launch Center (WSC)
Object type
Payload
Rocket body
Debris
Shape & HBR
Cyl, 4.4 m
Radar Cross Section
35.516 m², Large (>1 m²)

Expand to show TLE details & history
Last TLE update: 15 hours ago

TLE from 15 hours ago
0 CZ-12 R/B
1 65115U 25168K   26171.34556102 -.00000312  00000-0 -75044-4 0  9995
2 65115  49.9815 166.7844 0076271 139.2551 221.4096 14.16530326 45353
Epoch: 2026-06-20T08:17Z
TLE epoch observation values (Epoch: 2026-06-20T08:17:36.472Z)
Latitude
-0.00007°
Longitude
133.82086°
Altitude
879.09 km
Speed
7.393 km/s
True Right ascension
11h 07m 08s
True Declination
0° 00' 00"
Sunlit
Object was in daylight at epoch
Visualization orbit readout
Latitude
Unknown
Longitude
Unknown
Altitude
Unknown
Speed
Unknown
Apparent Right ascension
Unknown
Apparent Declination
Unknown
Sunlit
N/A
Visualization observer readout
Local Sidereal Time
10:18:35
Azimuth
Unknown
Elevation
Unknown
Doppler factor
Unknown
Orbital elements
Apogee altitude
892.886 km
Perigee altitude
782.812 km
Semi-major axis
7,215.986 km
Eccentricity
0.00763
Inclination
49.9815°
RAAN
166.7844°
Arg. of periapsis
139.2551°
True anomaly
220.83562°
Mean anomaly
221.4096°
Eccentric anomaly
221.1222°
Mean motion
3.54079 °/min
Orbital period
101.67 mins
BSTAR
-0.000075044
Loading maneuver chart data...
Computing Atmospheric mass density...
Loading historical data...
Loading historical data...
Loading historical data...
Loading historical data...
Loading historical data...
Loading historical data...
Loading historical data...

Documentation

Showing up to 5 results
|